Probability
0 0 1 1 1 2 2 1 0 0 0 0 0 0 0 0 0 0 0 0 0 0 1 1 1 2 2 2 1 1 0 0 0 0 0 0 0 0 0 0 0 0 0
0 1 2 2 2 2 2 1 0 0 0 0 0 0 0 0 0 0 0 0 0 0 0 1 1 2 3 2 2 1 1 0 0 0 0 0 0 0 0 0 0 0 0
0 1 2 2 2 1 1 0 0 0 0 0 0 0 0 0 0 0 0 0 0 0 0 0 1 2 3 3 2 2 1 0 0 0 0 0 0 0 0 0 0 0 0
0 0 1 1 1 0 0 0 0 0 0 0 0 0 0 0 0 0 0 0 0 0 0 0 1 1 2 2 2 2 1 0 0 1 0 0 0 0 0 0 0 0 0
0 0 0 0 0 0 0 0 0 0 0 0 0 0 0 0 0 0 0 0 0 0 0 0 0 0 0 0 1 1 0 0 0 0 0 0 0 0 0 0 0 0 0
1 1 0 0 0 0 0 0 0 0 0 0 0 0 0 0 0 0 0 0 0 0 0 0 0 0 0 0 0 1 1 0 0 0 0 0 0 0 0 0 0 0 0
2 1 1 0 0 0 0 0 0 0 0 0 0 0 0 0 0 0 0 0 0 0 0 0 0 0 0 0 0 0 1 0 0 0 0 0 0 0 0 0 0 0 0
1 1 1 1 1 0 0 0 0 0 0 0 0 0 0 0 0 0 0 0 0 0 0 0 0 0 0 0 0 0 0 0 0 0 0 0 0 0 0 0 0 0 0
1 0 1 1 1 0 0 0 0 0 0 0 0 0 0 0 0 0 0 0 0 0 0 0 0 0 0 0 0 0 0 0 0 0 0 0 0 0 0 0 0 1 1
1 0 0 0 0 0 0 0 0 0 0 0 0 0 0 0 0 0 0 0 0 0 0 0 0 0 0 0 0 0 0 0 0 0 0 0 0 0 0 0 1 2 2
1 0 0 0 0 0 0 0 0 0 0 0 0 0 0 0 0 0 0 0 0 0 0 0 0 0 0 0 0 0 0 0 0 0 0 1 1 1 0 0 1 2 2
0 0 0 0 1 1 0 0 0 0 0 0 0 0 0 0 0 0 0 0 0 0 0 0 0 0 0 0 0 0 0 0 0 0 0 1 2 1 0 0 0 1 1
0 0 0 0 1 1 0 0 0 0 0 0 0 0 0 0 0 0 0 0 0 0 0 0 0 0 0 0 0 0 0 0 0 0 0 1 1 0 0 0 0 0 1
0 0 0 0 1 1 0 0 0 0 0 0 0 0 0 0 0 0 0 0 0 0 0 0 0 0 0 0 0 0 0 0 0 0 0 0 0 0 0 0 0 0 1
0 0 0 0 0 0 0 0 0 0 0 0 0 0 0 0 0 0 0 0 0 0 0 0 0 0 0 0 0 0 0 0 0 0 0 0 0 0 0 0 0 0 0
0 0 0 0 0 0 0 0 0 0 0 0 0 0 0 0 0 0 0 0 0 0 0 0 0 0 0 0 0 0 0 0 0 0 0 0 0 0 0 0 0 0 0
0 0 0 0 0 0 0 0 0 0 0 0 0 0 0 0 0 0 0 0 0 0 0 0 0 0 0 0 0 0 0 0 0 0 0 0 0 0 0 0 0 0 0
0 0 0 0 0 0 0 0 0 0 0 0 0 0 0 0 0 0 0 0 0 0 0 0 0 0 0 0 0 0 0 0 0 0 0 0 0 0 0 0 0 0 0
0 0 0 0 0 0 0 0 0 0 0 0 0 0 0 0 0 0 0 0 0 0 0 0 0 0 0 0 0 0 0 0 0 0 0 0 0 0 0 0 0 0 0
0 0 1 1 1 0 0 0 0 0 0 0 0 0 0 0 0 0 0 0 0 0 0 0 0 0 0 0 0 0 0 0 0 0 0 0 0 0 0 0 0 0 0
0 0 1 2 1 0 0 0 0 0 0 0 0 0 0 0 0 0 0 0 0 0 0 0 0 0 0 0 0 0 0 0 0 0 1 0 0 0 0 0 0 0 0
0 0 0 1 1 0 0 0 0 0 0 0 0 0 0 0 0 0 0 0 0 0 0 0 0 0 0 0 0 0 0 0 0 0 0 0 0 0 0 0 0 0 0
1 1 0 0 0 1 1 0 0 0 0 0 0 0 0 0 0 0 0 0 0 0 0 0 0 0 0 0 0 0 0 0 0 0 0 0 0 0 0 0 0 0 0
4 3 1 0 1 2 2 1 0 0 0 0 0 0 0 0 0 0 0 0 0 0 0 0 0 0 0 0 0 0 0 0 0 0 0 0 0 0 0 0 0 0 0
6 5 2 1 1 3 3 1 1 0 0 0 0 0 0 0 0 0 0 0 0 0 0 0 0 0 0 0 0 0 0 0 0 0 0 0 0 0 0 0 0 0 0
6 5 3 2 2 3 3 2 2 1 0 0 0 0 0 0 0 0 0 0 0 0 0 0 0 0 0 0 0 0 0 0 0 0 0 0 0 0 0 0 0 0 0
Wind_Speed
9 10 11 12 12 12 12 12 12 12 12 12 11 11 11 10 10 10 9 9 9 9 9 8 8 8 8 8 8 7 6 6 6 5 5 5 5 6 6 7 7 5 7
13 11 12 12 13 13 12 12 12 12 12 12 11 11 10 9 9 9 8 8 8 8 8 8 8 7 7 7 7 7 6 5 4 3 2 2 4 5 5 6 7 4 6
14 12 11 13 13 13 13 12 12 12 12 11 11 11 10 9 9 9 8 8 8 8 7 7 7 7 6 6 6 6 5 5 5 4 3 0 3 5 5 6 6 6 6
14 11 12 13 14 13 13 13 12 12 12 11 11 11 10 9 8 8 7 7 7 7 7 7 6 6 6 6 5 5 5 5 5 6 2 2 3 6 6 6 5 5 5
14 12 13 14 14 13 13 13 12 12 11 11 11 10 9 8 8 7 7 7 7 6 6 6 6 6 6 5 5 5 5 5 6 5 2 4 5 6 6 5 5 4 4
14 13 12 14 14 13 13 13 12 12 11 11 10 9 8 7 7 6 6 6 6 6 6 5 5 5 5 5 4 4 5 6 7 2 2 4 5 6 6 5 4 3 3
14 13 13 14 13 13 13 12 12 11 11 10 9 8 8 7 6 6 6 6 6 6 5 5 4 4 4 4 4 3 5 7 4 1 3 4 5 6 5 4 4 4 3
13 12 12 14 13 12 12 12 11 10 9 8 8 7 6 5 5 5 5 5 5 5 5 4 3 3 3 2 3 3 5 7 4 2 3 4 6 6 5 4 3 3 3
12 11 11 10 10 11 12 11 10 9 8 7 6 5 3 3 3 4 5 4 4 4 3 3 2 2 1 1 2 3 5 6 4 2 3 4 6 6 5 4 3 3 3
9 9 10 10 9 9 8 10 10 9 7 5 5 4 3 3 4 4 5 4 3 2 2 1 1 2 2 3 4 5 5 5 2 1 2 5 7 6 5 4 3 3 4
8 7 8 8 7 7 8 9 8 8 6 5 4 6 4 2 3 4 5 4 2 2 1 2 4 4 5 6 7 7 5 2 1 2 3 6 7 6 5 4 3 3 4
7 6 7 6 5 5 5 6 3 4 4 3 2 3 2 1 2 4 6 5 4 4 4 6 6 6 6 4 6 6 2 2 1 3 4 7 7 6 5 4 4 4 4
7 6 5 5 5 5 4 3 2 1 1 1 1 3 1 2 1 2 2 3 4 4 3 3 5 4 3 1 1 2 1 0 1 3 4 7 7 6 5 4 4 4 4
7 6 4 3 4 4 4 3 2 2 1 2 2 3 2 1 2 1 1 1 0 0 0 1 1 1 2 2 1 1 1 1 2 3 4 7 6 5 5 4 4 4 4
6 5 4 3 4 4 3 1 3 2 2 3 2 2 3 2 2 1 2 2 2 1 1 2 2 3 3 4 3 4 4 3 2 4 3 6 6 5 4 4 3 4 3
7 6 4 3 3 3 3 2 3 2 2 3 2 2 3 2 2 2 2 2 2 2 2 2 2 2 2 2 2 3 3 3 2 3 3 4 5 5 5 4 4 3 3
7 6 5 3 3 4 4 3 3 2 3 3 2 3 3 3 3 3 3 2 2 2 3 3 3 2 2 1 1 1 1 2 2 2 2 3 3 4 4 4 3 3 3
7 7 4 4 5 5 4 3 3 3 3 3 2 3 4 4 4 4 3 2 3 3 3 2 3 3 3 2 2 1 1 1 1 1 1 2 2 3 3 4 4 3 3
7 7 5 4 5 5 4 3 3 3 3 3 3 3 4 5 4 3 2 2 3 3 3 3 3 2 2 2 1 1 1 1 1 2 2 2 2 2 3 4 4 3 3
7 7 6 5 4 4 3 3 2 3 2 2 2 3 4 4 5 4 2 4 4 3 3 3 3 2 2 2 2 2 1 1 2 2 2 2 2 2 2 3 3 2 2
6 7 6 5 4 3 2 2 2 2 2 2 2 3 3 4 5 4 3 3 3 3 3 4 3 3 2 2 2 2 2 2 2 1 2 2 2 2 1 2 1 1 1
6 6 6 5 4 4 2 2 2 2 2 2 2 3 3 4 4 4 3 3 3 3 4 3 3 3 3 2 2 2 2 3 3 2 1 1 2 1 1 2 2 2 1
6 6 6 6 6 5 4 3 2 2 1 2 2 2 3 3 4 4 4 3 3 3 2 3 3 3 3 3 3 2 2 1 2 3 3 2 2 2 2 2 2 2 2
7 6 7 6 6 5 5 3 3 2 2 2 2 1 2 3 3 3 3 3 3 3 3 3 4 3 3 3 3 3 2 1 1 2 3 2 2 3 2 3 3 3 3
6 5 6 6 5 5 5 3 2 2 2 2 2 2 2 2 2 3 3 3 3 2 2 3 3 3 2 2 2 2 2 2 2 2 1 3 2 2 2 2 2 2 3
7 5 5 5 5 4 4 4 4 3 3 3 2 1 2 1 1 2 2 2 3 3 3 2 2 3 2 3 2 2 2 2 2 2 1 1 1 1 2 2 2 2 2
Wind_Direction
107 105 106 102 98 97 97 99 100 98 97 94 90 87 81 76 73 71 68 65 64 63 65 64 61 58 55 55 55 52 52 51 51 55 60 67 73 68 59 49 48 55 56
111 108 105 102 100 99 97 98 101 101 98 94 92 89 84 79 74 71 68 63 62 62 62 62 61 58 55 54 53 49 46 39 33 29 40 74 88 84 69 55 51 58 60
110 111 105 101 100 99 98 97 98 99 97 95 93 91 88 82 76 71 67 63 61 61 59 60 59 55 53 51 48 42 34 19 358 339 311 234 117 95 79 62 59 58 59
108 108 105 103 100 98 96 96 97 96 95 94 92 89 86 82 75 68 63 63 61 59 59 59 56 52 50 47 43 33 17 358 338 326 326 85 96 89 74 63 55 51 52
106 105 107 106 103 101 98 97 97 97 96 95 92 89 84 79 74 67 61 60 58 57 58 58 55 49 46 43 37 25 4 344 330 321 18 69 81 83 68 59 48 44 44
107 107 111 108 107 105 101 99 97 96 96 94 92 88 83 76 70 66 61 59 56 54 55 53 51 45 41 36 26 11 348 334 319 337 60 80 85 78 66 61 52 38 40
111 114 115 113 112 109 106 102 99 95 94 92 90 87 81 74 69 67 62 59 55 53 52 49 45 42 37 27 14 357 337 324 298 346 82 85 88 81 69 59 51 42 42
115 117 119 118 116 112 108 104 101 99 97 95 92 89 87 85 80 77 72 64 57 49 47 44 37 35 34 17 358 337 322 316 324 19 94 90 90 81 72 62 59 42 52
121 125 128 128 123 116 114 111 108 107 107 108 108 108 114 123 120 103 90 77 67 57 49 38 24 24 16 337 307 299 301 309 315 323 74 88 88 81 74 62 63 67 72
120 124 128 130 132 132 126 125 126 127 128 134 144 160 184 194 174 147 115 99 82 70 55 13 313 279 269 266 263 267 280 297 280 348 70 91 85 77 73 67 74 88 85
116 123 124 125 128 135 140 137 147 149 158 167 181 203 218 206 167 158 116 132 152 177 220 244 254 258 258 252 250 254 265 251 195 83 76 92 89 79 75 74 79 94 91
121 120 118 120 131 133 126 138 158 150 162 181 169 163 203 119 86 103 141 173 193 208 228 242 252 260 253 234 232 238 245 232 173 101 93 96 88 80 79 78 78 91 98
121 112 114 129 130 128 116 120 122 114 133 114 72 89 56 60 110 126 170 185 211 209 227 231 238 243 241 206 181 197 224 87 84 88 99 96 87 81 84 84 78 80 83
115 112 113 119 115 113 116 132 124 98 84 67 36 64 59 37 24 24 60 47 359 119 141 278 283 340 351 12 22 23 50 66 94 103 111 106 97 88 87 86 88 86 79
123 125 123 109 104 102 102 98 93 78 72 78 27 47 63 48 32 11 54 25 20 16 21 5 20 23 13 18 17 24 21 35 74 101 113 118 111 104 93 85 87 90 83
135 128 119 116 117 123 113 94 90 92 85 73 35 42 58 57 40 23 48 37 10 4 11 22 30 30 30 28 24 28 14 11 42 101 127 127 126 119 109 102 98 90 83
135 128 125 127 100 81 80 77 83 83 77 69 39 30 42 45 37 38 35 28 6 8 25 24 20 15 20 39 38 51 39 12 28 81 126 144 144 135 128 117 109 108 94
127 122 128 120 101 85 74 60 63 61 64 69 47 25 26 41 46 42 27 11 17 23 23 30 25 11 16 18 17 13 57 30 29 38 90 132 146 142 146 139 128 123 112
131 129 126 108 102 95 90 77 68 66 51 56 47 25 18 28 44 51 24 13 32 29 15 23 37 23 7 354 344 34 33 40 27 28 44 65 89 120 138 152 145 130 115
129 128 123 116 110 110 99 87 69 63 59 61 62 42 24 20 37 38 31 28 35 30 17 25 24 23 1 345 1 37 4 72 65 21 25 51 57 83 106 134 147 147 137
130 128 130 133 129 118 107 103 97 89 70 59 66 52 38 35 31 32 31 37 41 40 30 31 20 8 357 6 17 1 7 41 61 56 37 44 48 47 57 97 124 130 131
135 133 134 132 128 113 102 104 105 96 94 78 54 48 38 43 29 26 32 38 50 48 34 28 29 10 358 20 32 14 14 14 3 36 48 67 62 24 35 68 74 78 80
147 148 143 142 133 125 118 95 93 80 72 80 69 46 37 46 39 27 28 34 38 51 38 32 37 32 1 1 29 50 65 24 338 352 13 49 57 39 31 34 54 58 59
153 152 147 144 136 136 134 126 131 123 102 96 98 91 63 56 49 31 28 29 36 51 43 26 38 23 27 10 3 18 50 102 93 352 348 10 44 53 41 42 42 42 47
147 143 143 138 134 133 127 131 125 102 104 95 98 93 84 71 62 51 29 29 34 52 63 52 44 36 28 28 14 8 10 13 27 76 348 346 9 30 48 58 56 46 40
140 139 135 133 126 129 139 142 118 108 106 100 96 96 99 93 65 60 46 41 34 33 41 44 53 56 38 25 22 28 33 31 17 38 28 356 357 349 31 56 59 50 48